AUA535T LOWW-LIRQ

Flight info

Callsign AUA535T
Flight time N/A
Altitude 30000
Route N0387F300 RUPET DCT GRZ DCT RADLY DCT PENEP/N0400F320 DCT ROPUS DCT RIFEN/N0406F330 DCT LUMAV/N0348F190 Q58 BIKTU
Aircraft E195/M-SDE2E3FGIJ1RWY/LB1

Departure

Time N/A
Airport Vienna International Airport (LOWW)

Arrival

Time 2026-05-05 12:33
Airport Florence Airport, Peretola (LIRQ)
Time Latitude Longitude Altitude Speed Heading
2026-05-05 11:08 47.78293 16.18868 15525 ft 355 kts 224°
2026-05-05 11:08 47.76515 16.16306 16095 ft 357 kts 224°
2026-05-05 11:09 47.74737 16.13742 16617 ft 361 kts 224°
2026-05-05 11:09 47.72916 16.11146 17148 ft 365 kts 221°
2026-05-05 11:09 47.70802 16.09001 17696 ft 370 kts 211°
2026-05-05 11:09 47.68538 16.07145 18238 ft 373 kts 210°
2026-05-05 11:10 47.66266 16.05233 18719 ft 378 kts 211°
2026-05-05 11:10 47.63975 16.03281 19252 ft 380 kts 211°
2026-05-05 11:10 47.61675 16.01317 19791 ft 384 kts 211°
2026-05-05 11:10 47.59338 15.99339 20110 ft 388 kts 211°
2026-05-05 11:11 47.56988 15.97357 20389 ft 389 kts 211°
2026-05-05 11:11 47.54625 15.95365 20654 ft 391 kts 211°
2026-05-05 11:11 47.52260 15.93370 20946 ft 392 kts 211°
2026-05-05 11:11 47.49879 15.91372 21223 ft 394 kts 211°
2026-05-05 11:12 47.47487 15.89364 21516 ft 396 kts 211°
2026-05-05 11:12 47.45081 15.87345 21822 ft 398 kts 211°
2026-05-05 11:12 47.42697 15.85345 22198 ft 400 kts 211°
2026-05-05 11:12 47.40269 15.83313 22581 ft 402 kts 211°
2026-05-05 11:13 47.37823 15.81265 22909 ft 406 kts 211°
2026-05-05 11:13 47.35368 15.79215 23205 ft 407 kts 211°
2026-05-05 11:13 47.32895 15.77146 23489 ft 408 kts 210°
2026-05-05 11:13 47.30420 15.75083 23738 ft 410 kts 211°
2026-05-05 11:14 47.27935 15.73010 23990 ft 411 kts 211°
2026-05-05 11:14 47.25452 15.70936 24245 ft 412 kts 211°
2026-05-05 11:14 47.22987 15.68891 24484 ft 401 kts 211°
2026-05-05 11:14 47.20567 15.66891 24944 ft 398 kts 211°
2026-05-05 11:15 47.18126 15.64873 25175 ft 399 kts 211°
2026-05-05 11:15 47.15744 15.62896 25313 ft 391 kts 211°
2026-05-05 11:15 47.13375 15.60927 25604 ft 392 kts 211°
2026-05-05 11:15 47.11022 15.58978 25870 ft 394 kts 211°
2026-05-05 11:16 47.08614 15.56999 26136 ft 396 kts 211°
2026-05-05 11:16 47.06216 15.55018 26408 ft 397 kts 211°
2026-05-05 11:16 47.03804 15.53031 26679 ft 399 kts 211°
2026-05-05 11:16 47.01378 15.51031 26956 ft 400 kts 211°
2026-05-05 11:17 46.98947 15.49025 27233 ft 402 kts 211°
2026-05-05 11:17 46.96504 15.47021 27519 ft 402 kts 211°
2026-05-05 11:17 46.94066 15.45025 27800 ft 404 kts 211°
2026-05-05 11:17 46.91601 15.43006 28087 ft 405 kts 211°
2026-05-05 11:18 46.89142 15.40991 28382 ft 406 kts 211°
2026-05-05 11:18 46.86671 15.38964 28683 ft 407 kts 211°
2026-05-05 11:18 46.84196 15.36942 29050 ft 407 kts 211°
2026-05-05 11:18 46.81721 15.34926 29461 ft 407 kts 211°
2026-05-05 11:19 46.79249 15.32912 29823 ft 408 kts 211°
2026-05-05 11:19 46.76804 15.30923 29930 ft 408 kts 211°
2026-05-05 11:19 46.74321 15.28904 29933 ft 407 kts 211°
2026-05-05 11:20 46.69395 15.24905 30250 ft 403 kts 211°
2026-05-05 11:20 46.66954 15.22925 30515 ft 399 kts 211°
2026-05-05 11:20 46.64579 15.20824 30762 ft 400 kts 218°
2026-05-05 11:20 46.62609 15.17989 31024 ft 399 kts 231°
2026-05-05 11:21 46.60847 15.14842 31323 ft 400 kts 231°
2026-05-05 11:21 46.59099 15.11712 31595 ft 400 kts 231°
2026-05-05 11:21 46.57366 15.08603 31873 ft 401 kts 231°
2026-05-05 11:21 46.55607 15.05449 32155 ft 402 kts 231°
2026-05-05 11:22 46.53846 15.02285 32436 ft 402 kts 231°
2026-05-05 11:22 46.52088 14.99127 32720 ft 402 kts 231°
2026-05-05 11:22 46.50335 14.95982 33007 ft 401 kts 231°
2026-05-05 11:23 46.46762 14.89563 33062 ft 416 kts 231°
2026-05-05 11:23 46.43055 14.82909 32975 ft 429 kts 231°
2026-05-05 11:24 46.39451 14.76461 32984 ft 430 kts 231°
2026-05-05 11:24 46.36818 14.71412 32999 ft 430 kts 234°
2026-05-05 11:25 46.33393 14.64373 33014 ft 430 kts 234°
2026-05-05 11:25 46.30013 14.57213 33018 ft 430 kts 235°
2026-05-05 11:26 46.26666 14.50017 33030 ft 432 kts 236°
2026-05-05 11:26 46.23345 14.42757 33021 ft 433 kts 237°
2026-05-05 11:27 46.20061 14.35430 33030 ft 435 kts 237°
2026-05-05 11:27 46.16783 14.28160 33025 ft 434 kts 237°
2026-05-05 11:28 46.13462 14.20826 33031 ft 434 kts 237°
2026-05-05 11:28 46.10171 14.13579 33031 ft 434 kts 236°
2026-05-05 11:29 46.06854 14.06289 33027 ft 436 kts 236°
2026-05-05 11:29 46.03517 13.98973 33050 ft 436 kts 236°
2026-05-05 11:30 46.00198 13.91720 33052 ft 436 kts 236°
2026-05-05 11:30 45.96857 13.84430 33057 ft 436 kts 236°
2026-05-05 11:31 45.93508 13.77149 33056 ft 436 kts 236°
2026-05-05 11:31 45.90157 13.69883 33058 ft 435 kts 236°
2026-05-05 11:32 45.88353 13.66071 33074 ft 436 kts 232°
2026-05-05 11:32 45.84085 13.59883 33017 ft 437 kts 222°
2026-05-05 11:33 45.80158 13.54899 33015 ft 430 kts 220°
2026-05-05 11:33 45.75466 13.49552 33052 ft 431 kts 218°
2026-05-05 11:34 45.70823 13.44203 33032 ft 431 kts 220°
2026-05-05 11:34 45.66176 13.38795 33039 ft 431 kts 219°
2026-05-05 11:35 45.61520 13.33416 33036 ft 430 kts 219°
2026-05-05 11:35 45.56868 13.28059 33042 ft 429 kts 219°
2026-05-05 11:36 45.52218 13.22718 33021 ft 428 kts 219°
2026-05-05 11:36 45.47605 13.17429 33031 ft 428 kts 219°
2026-05-05 11:37 45.42962 13.12116 33020 ft 428 kts 220°
2026-05-05 11:37 45.38366 13.06872 32987 ft 415 kts 220°
2026-05-05 11:38 45.33868 13.01749 33026 ft 414 kts 220°
2026-05-05 11:38 45.29365 12.96629 33021 ft 414 kts 220°
2026-05-05 11:39 45.24865 12.91525 32887 ft 416 kts 220°
2026-05-05 11:39 45.22629 12.88992 32665 ft 415 kts 220°
2026-05-05 11:39 45.20379 12.86446 32392 ft 413 kts 220°
2026-05-05 11:39 45.18135 12.83909 32105 ft 411 kts 220°
2026-05-05 11:40 45.15901 12.81386 31819 ft 408 kts 219°
2026-05-05 11:40 45.13678 12.78879 31581 ft 405 kts 219°
2026-05-05 11:40 45.11476 12.76398 31347 ft 404 kts 219°
2026-05-05 11:40 45.09275 12.73918 31112 ft 404 kts 219°
2026-05-05 11:41 45.07076 12.71444 30880 ft 402 kts 219°
2026-05-05 11:41 45.04912 12.69013 30658 ft 401 kts 219°
2026-05-05 11:41 45.02722 12.66553 30433 ft 400 kts 219°
2026-05-05 11:41 45.00542 12.64108 30212 ft 399 kts 218°
2026-05-05 11:42 44.98375 12.61680 29978 ft 398 kts 218°
2026-05-05 11:42 44.96209 12.59257 29708 ft 396 kts 218°
2026-05-05 11:42 44.94049 12.56844 29423 ft 395 kts 218°
2026-05-05 11:42 44.91901 12.54446 29142 ft 393 kts 218°
2026-05-05 11:43 44.89764 12.52061 28870 ft 391 kts 218°
2026-05-05 11:43 44.87659 12.49712 28611 ft 389 kts 219°
2026-05-05 11:43 44.85539 12.47350 28352 ft 388 kts 219°
2026-05-05 11:43 44.83416 12.44987 28089 ft 384 kts 219°
2026-05-05 11:44 44.81350 12.42689 27811 ft 372 kts 219°
2026-05-05 11:44 44.79355 12.40473 27550 ft 360 kts 219°
2026-05-05 11:44 44.77412 12.38317 27294 ft 350 kts 219°
2026-05-05 11:44 44.75516 12.36214 27060 ft 344 kts 219°
2026-05-05 11:45 44.73684 12.34186 26828 ft 333 kts 219°
2026-05-05 11:45 44.71874 12.32183 26588 ft 323 kts 219°
2026-05-05 11:45 44.70148 12.30275 26359 ft 315 kts 219°
2026-05-05 11:45 44.68435 12.28382 26159 ft 312 kts 219°
2026-05-05 11:46 44.66739 12.26508 25951 ft 307 kts 219°
2026-05-05 11:46 44.65089 12.24689 25745 ft 297 kts 219°
2026-05-05 11:46 44.63484 12.22920 25548 ft 288 kts 219°
2026-05-05 11:46 44.61925 12.21203 25333 ft 280 kts 220°
2026-05-05 11:47 44.60408 12.19532 25159 ft 275 kts 220°
2026-05-05 11:47 44.58901 12.17871 24991 ft 276 kts 220°
2026-05-05 11:47 44.57380 12.16198 24846 ft 279 kts 220°
2026-05-05 11:47 44.55863 12.14530 24709 ft 280 kts 220°
2026-05-05 11:48 44.52792 12.11157 24385 ft 280 kts 220°
2026-05-05 11:48 44.51257 12.09472 24189 ft 279 kts 220°
2026-05-05 11:48 44.49727 12.07795 23945 ft 279 kts 220°
2026-05-05 11:49 44.48202 12.06125 23695 ft 276 kts 219°
2026-05-05 11:49 44.46694 12.04474 23426 ft 274 kts 219°
2026-05-05 11:49 44.45217 12.02858 23141 ft 271 kts 219°
2026-05-05 11:49 44.43729 12.01231 22850 ft 270 kts 219°
2026-05-05 11:50 44.42258 11.99623 22557 ft 264 kts 219°
2026-05-05 11:50 44.40827 11.98061 22273 ft 258 kts 219°
2026-05-05 11:50 44.39421 11.96527 21992 ft 253 kts 219°
2026-05-05 11:50 44.38049 11.95032 21727 ft 248 kts 219°
2026-05-05 11:51 44.36810 11.93681 21496 ft 246 kts 219°
2026-05-05 11:51 44.36780 11.93648 21489 ft 246 kts 219°
2026-05-05 11:51 44.35534 11.92071 21256 ft 245 kts 229°
2026-05-05 11:51 44.34412 11.90258 21039 ft 248 kts 230°
2026-05-05 11:52 44.33289 11.88423 20817 ft 249 kts 230°
2026-05-05 11:52 44.32166 11.86584 20587 ft 248 kts 230°
2026-05-05 11:52 44.31046 11.84749 20346 ft 248 kts 230°
2026-05-05 11:52 44.29913 11.82947 20115 ft 247 kts 228°
2026-05-05 11:53 44.29142 11.81779 19957 ft 246 kts 228°
2026-05-05 11:53 44.27979 11.80018 19724 ft 245 kts 228°
2026-05-05 11:53 44.26439 11.77688 19414 ft 244 kts 228°
2026-05-05 11:53 44.25674 11.76539 19263 ft 243 kts 228°
2026-05-05 11:54 44.24520 11.74805 19025 ft 243 kts 228°
2026-05-05 11:54 44.23004 11.72521 18713 ft 242 kts 228°
2026-05-05 11:54 44.22229 11.71356 18563 ft 242 kts 228°
2026-05-05 11:54 44.21089 11.69643 18331 ft 245 kts 227°
2026-05-05 11:55 44.19898 11.67917 18100 ft 247 kts 227°
2026-05-05 11:55 44.18706 11.66200 17838 ft 246 kts 227°
2026-05-05 11:55 44.17511 11.64487 17571 ft 245 kts 227°
2026-05-05 11:55 44.16321 11.62780 17310 ft 247 kts 227°
2026-05-05 11:56 44.15117 11.61055 17051 ft 248 kts 227°
2026-05-05 11:56 44.13915 11.59334 16790 ft 247 kts 227°
2026-05-05 11:56 44.12716 11.57626 16532 ft 247 kts 227°
2026-05-05 11:56 44.11501 11.55905 16284 ft 252 kts 227°
2026-05-05 11:57 44.10302 11.54140 16038 ft 255 kts 231°
2026-05-05 11:57 44.09255 11.52134 15709 ft 258 kts 238°
2026-05-05 11:57 44.08323 11.50008 15372 ft 257 kts 239°
2026-05-05 11:57 44.07399 11.47904 15035 ft 252 kts 239°
2026-05-05 11:58 44.06495 11.45852 14693 ft 246 kts 239°
2026-05-05 11:58 44.05612 11.43848 14364 ft 240 kts 239°
2026-05-05 11:58 44.04750 11.41889 14057 ft 237 kts 239°
2026-05-05 11:58 44.03906 11.39977 13994 ft 226 kts 239°
2026-05-05 11:59 44.03092 11.38143 14009 ft 222 kts 239°
2026-05-05 11:59 44.02266 11.36284 14026 ft 228 kts 239°
2026-05-05 11:59 44.01431 11.34398 14061 ft 231 kts 239°
2026-05-05 11:59 44.00587 11.32490 14076 ft 232 kts 239°
2026-05-05 12:00 43.99740 11.30581 14086 ft 232 kts 239°
2026-05-05 12:00 43.98887 11.28659 13982 ft 235 kts 239°
2026-05-05 12:00 43.98032 11.26737 13973 ft 231 kts 239°
2026-05-05 12:00 43.97192 11.24845 13976 ft 231 kts 239°
2026-05-05 12:01 43.96349 11.22938 13978 ft 232 kts 239°
2026-05-05 12:01 43.95568 11.20983 14004 ft 231 kts 244°
2026-05-05 12:01 43.94892 11.18955 14010 ft 232 kts 245°
2026-05-05 12:01 43.94224 11.16946 14018 ft 232 kts 245°
2026-05-05 12:02 43.93547 11.14909 14030 ft 233 kts 245°
2026-05-05 12:02 43.92869 11.12860 13963 ft 234 kts 245°
2026-05-05 12:02 43.92192 11.10817 13864 ft 233 kts 245°
2026-05-05 12:02 43.91520 11.08780 13761 ft 231 kts 245°
2026-05-05 12:03 43.90851 11.06759 13626 ft 230 kts 245°
2026-05-05 12:03 43.90184 11.04742 13484 ft 228 kts 245°
2026-05-05 12:03 43.89523 11.02745 13353 ft 227 kts 245°
2026-05-05 12:03 43.88862 11.00762 13227 ft 227 kts 242°
2026-05-05 12:04 43.87869 10.99072 13093 ft 227 kts 223°
2026-05-05 12:04 43.86604 10.97735 12939 ft 230 kts 218°
2026-05-05 12:04 43.85338 10.96422 12740 ft 230 kts 220°
2026-05-05 12:04 43.84084 10.95057 12531 ft 229 kts 220°
2026-05-05 12:05 43.82838 10.93700 12324 ft 225 kts 220°
2026-05-05 12:05 43.81610 10.92365 12114 ft 225 kts 220°
2026-05-05 12:05 43.80384 10.91030 12044 ft 219 kts 220°
2026-05-05 12:05 43.79180 10.89726 12061 ft 221 kts 220°
2026-05-05 12:06 43.77956 10.88401 12070 ft 225 kts 221°
2026-05-05 12:06 43.76724 10.87062 12083 ft 226 kts 220°
2026-05-05 12:06 43.75481 10.85714 12055 ft 228 kts 220°
2026-05-05 12:06 43.74232 10.84360 11983 ft 227 kts 220°
2026-05-05 12:07 43.73001 10.83012 11991 ft 225 kts 221°
2026-05-05 12:07 43.71768 10.81675 11994 ft 226 kts 221°
2026-05-05 12:07 43.70528 10.80330 11988 ft 227 kts 220°
2026-05-05 12:07 43.69299 10.79003 11985 ft 227 kts 220°
2026-05-05 12:08 43.68058 10.77661 11985 ft 227 kts 220°
2026-05-05 12:08 43.66811 10.76310 12012 ft 228 kts 220°
2026-05-05 12:08 43.65559 10.74951 11993 ft 228 kts 221°
2026-05-05 12:08 43.65144 10.74502 12002 ft 227 kts 220°
2026-05-05 12:09 43.63894 10.73157 11926 ft 228 kts 220°
2026-05-05 12:09 43.62641 10.71804 11802 ft 229 kts 221°
2026-05-05 12:09 43.61390 10.70454 11650 ft 228 kts 220°
2026-05-05 12:09 43.60155 10.69129 11494 ft 227 kts 218°
2026-05-05 12:10 43.58669 10.68313 11298 ft 234 kts 188°
2026-05-05 12:10 43.57073 10.68780 11129 ft 248 kts 156°
2026-05-05 12:10 43.56084 10.69893 11013 ft 256 kts 138°
2026-05-05 12:10 43.54800 10.71434 10861 ft 252 kts 145°
2026-05-05 12:11 43.53516 10.73120 10678 ft 261 kts 131°
2026-05-05 12:11 43.52826 10.74653 10589 ft 264 kts 122°
2026-05-05 12:11 43.52593 10.75311 10542 ft 266 kts 116°
2026-05-05 12:11 43.52075 10.77767 10367 ft 266 kts 113°
2026-05-05 12:12 43.51050 10.79757 10141 ft 251 kts 153°
2026-05-05 12:12 43.49466 10.80312 9966 ft 231 kts 194°
2026-05-05 12:12 43.48067 10.79421 9786 ft 222 kts 229°
2026-05-05 12:12 43.47473 10.77513 9534 ft 222 kts 268°
2026-05-05 12:13 43.47916 10.75480 9266 ft 232 kts 304°
2026-05-05 12:13 43.49308 10.74313 8988 ft 248 kts 347°
2026-05-05 12:13 43.50995 10.74800 8798 ft 256 kts 31°
2026-05-05 12:13 43.52460 10.76173 8762 ft 256 kts 26°
2026-05-05 12:14 43.54125 10.76971 8679 ft 252 kts
2026-05-05 12:14 43.55846 10.76828 8488 ft 246 kts 338°
2026-05-05 12:14 43.57305 10.75795 8272 ft 236 kts 314°
2026-05-05 12:14 43.58288 10.74017 8072 ft 233 kts 289°
2026-05-05 12:15 43.58605 10.71890 8087 ft 222 kts 269°
2026-05-05 12:15 43.58582 10.69736 8121 ft 227 kts 266°
2026-05-05 12:15 43.58539 10.67545 8131 ft 229 kts 266°
2026-05-05 12:15 43.58507 10.65325 7945 ft 232 kts 266°
2026-05-05 12:16 43.58440 10.63134 7946 ft 227 kts 265°
2026-05-05 12:16 43.58363 10.60966 7946 ft 227 kts 263°
2026-05-05 12:16 43.57950 10.58898 8017 ft 226 kts 241°
2026-05-05 12:16 43.56889 10.57297 7986 ft 231 kts 216°
2026-05-05 12:17 43.55388 10.56529 7818 ft 239 kts 190°
2026-05-05 12:17 43.53718 10.56801 7651 ft 248 kts 163°
2026-05-05 12:17 43.52260 10.58110 7478 ft 256 kts 137°
2026-05-05 12:17 43.51332 10.60216 7293 ft 260 kts 111°
2026-05-05 12:18 43.51094 10.62680 6992 ft 265 kts 85°
2026-05-05 12:18 43.51605 10.65127 6677 ft 266 kts 64°
2026-05-05 12:18 43.52448 10.67398 6356 ft 266 kts 64°
2026-05-05 12:18 43.53248 10.69716 5853 ft 273 kts 65°
2026-05-05 12:19 43.54062 10.72067 5503 ft 269 kts 64°
2026-05-05 12:19 43.54889 10.74352 5138 ft 263 kts 63°
2026-05-05 12:19 43.55706 10.76546 4835 ft 256 kts 63°
2026-05-05 12:19 43.56517 10.78706 4584 ft 252 kts 63°
2026-05-05 12:20 43.57319 10.80849 4340 ft 250 kts 63°
2026-05-05 12:20 43.58114 10.82965 4114 ft 248 kts 63°
2026-05-05 12:20 43.58902 10.85057 4032 ft 240 kts 63°
2026-05-05 12:20 43.59664 10.87108 4051 ft 242 kts 64°
2026-05-05 12:21 43.60430 10.89205 4045 ft 246 kts 63°
2026-05-05 12:21 43.61248 10.91283 4040 ft 246 kts 56°
2026-05-05 12:21 43.62443 10.92920 4039 ft 246 kts 29°
2026-05-05 12:21 43.64052 10.93630 4012 ft 244 kts 360°
2026-05-05 12:22 43.65679 10.93204 4031 ft 236 kts 330°
2026-05-05 12:22 43.66897 10.91767 4057 ft 229 kts 300°
2026-05-05 12:22 43.67388 10.89732 4091 ft 222 kts 269°
2026-05-05 12:22 43.67050 10.87680 4010 ft 222 kts 239°
2026-05-05 12:23 43.66131 10.85966 4006 ft 224 kts 231°
2026-05-05 12:23 43.65136 10.84322 3992 ft 224 kts 229°
2026-05-05 12:23 43.64116 10.82719 3992 ft 221 kts 229°
2026-05-05 12:23 43.63109 10.81105 3975 ft 221 kts 229°
2026-05-05 12:24 43.62095 10.79546 3983 ft 221 kts 227°
2026-05-05 12:24 43.61049 10.78003 3968 ft 220 kts 228°
2026-05-05 12:24 43.60021 10.76433 3956 ft 221 kts 228°
2026-05-05 12:24 43.58909 10.74981 3988 ft 221 kts 213°
2026-05-05 12:25 43.57440 10.74360 4030 ft 226 kts 182°
2026-05-05 12:25 43.55917 10.74887 4032 ft 231 kts 152°
2026-05-05 12:25 43.54777 10.76460 4049 ft 238 kts 121°
2026-05-05 12:25 43.54331 10.78663 4047 ft 244 kts 94°
2026-05-05 12:26 43.54669 10.80948 3990 ft 246 kts 63°
2026-05-05 12:26 43.55744 10.82782 4021 ft 247 kts 44°
2026-05-05 12:26 43.56958 10.84488 4007 ft 248 kts 46°
2026-05-05 12:26 43.58143 10.86170 3997 ft 247 kts 45°
2026-05-05 12:27 43.59352 10.87852 3989 ft 245 kts 44°
2026-05-05 12:27 43.60580 10.89494 3994 ft 246 kts 42°
2026-05-05 12:27 43.61852 10.91104 3890 ft 247 kts 42°
2026-05-05 12:27 43.63020 10.92766 3818 ft 235 kts 47°
2026-05-05 12:28 43.64062 10.94395 3737 ft 219 kts 48°
2026-05-05 12:28 43.65069 10.95924 3675 ft 214 kts 47°
2026-05-05 12:28 43.66065 10.97421 3601 ft 209 kts 48°
2026-05-05 12:28 43.67022 10.98898 3528 ft 205 kts 48°
2026-05-05 12:29 43.67968 11.00355 3474 ft 202 kts 48°
2026-05-05 12:29 43.68896 11.01804 3384 ft 205 kts 49°
2026-05-05 12:29 43.69851 11.03280 3277 ft 205 kts 48°
2026-05-05 12:29 43.70815 11.04738 3016 ft 206 kts 48°
2026-05-05 12:30 43.71761 11.06215 2752 ft 204 kts 49°
2026-05-05 12:30 43.72706 11.07683 2469 ft 204 kts 49°
2026-05-05 12:30 43.73639 11.09109 2202 ft 194 kts 49°
2026-05-05 12:30 43.74516 11.10452 1963 ft 181 kts 49°
2026-05-05 12:31 43.75308 11.11690 1756 ft 163 kts 50°
2026-05-05 12:31 43.76036 11.12811 1493 ft 148 kts 49°
2026-05-05 12:31 43.76688 11.13815 1316 ft 135 kts 50°
2026-05-05 12:31 43.77291 11.14751 1145 ft 127 kts 49°
2026-05-05 12:32 43.77870 11.15645 963 ft 124 kts 49°
2026-05-05 12:32 43.78434 11.16519 808 ft 123 kts 49°
2026-05-05 12:32 43.79001 11.17394 627 ft 121 kts 49°
2026-05-05 12:32 43.79547 11.18251 462 ft 118 kts 49°
2026-05-05 12:33 43.80101 11.19116 300 ft 121 kts 49°
2026-05-05 12:33 43.80674 11.19999 144 ft 124 kts 49°
2026-05-05 12:33 43.81149 11.20733 124 ft 65 kts 48°
2026-05-05 12:33 43.81273 11.20934 132 ft 8 kts 68°
2026-05-05 12:34 43.81285 11.20948 132 ft 2 kts
2026-05-05 12:34 43.81286 11.20928 132 ft 3 kts 261°
2026-05-05 12:34 43.81247 11.20881 127 ft 11 kts 221°
2026-05-05 12:34 43.81189 11.20793 124 ft 13 kts 228°
2026-05-05 12:35 43.81126 11.20696 126 ft 13 kts 228°
2026-05-05 12:35 43.81064 11.20601 125 ft 14 kts 229°
2026-05-05 12:35 43.80997 11.20497 125 ft 15 kts 228°
2026-05-05 12:35 43.80922 11.20381 126 ft 18 kts 228°
2026-05-05 12:36 43.80829 11.20236 129 ft 22 kts 228°
2026-05-05 12:36 43.80723 11.20073 127 ft 24 kts 228°
2026-05-05 12:36 43.80622 11.19917 130 ft 20 kts 228°
2026-05-05 12:36 43.80558 11.19816 129 ft 7 kts 239°
2026-05-05 12:37 43.80576 11.19752 126 ft 8 kts 317°
2026-05-05 12:37 43.80623 11.19694 128 ft 10 kts 319°
2026-05-05 12:37 43.80677 11.19628 127 ft 6 kts 318°
2026-05-05 12:37 43.80703 11.19629 129 ft 4 kts 33°
2026-05-05 12:38 43.80713 11.19655 127 ft 3 kts 82°
2026-05-05 12:38 43.80715 11.19677 129 ft 0 kts 82°